This is the latest recevied weather packets stored in our database for station/object K1KOF. If no packets are shown the sender has not sent any weather packets the latest 10 day(s).
| Time | Temp. | Humidity | Pressure | Rain* | Wind** | Luminosity | Snow |
|---|---|---|---|---|---|---|---|
| 1778163950 | 18.33° C | 99% | 1019.9 hPa | 0 mm | - | 77 W/m² | - |
| 1778163648 | 18.33° C | 99% | 1020 hPa | 0 mm | - | 86 W/m² | - |
| 1778163344 | 18.33° C | 99% | 1020.4 hPa | 0 mm | - | 73 W/m² | - |
| 1778163041 | 18.33° C | 99% | 1020.9 hPa | 0 mm | - | 50 W/m² | - |
| 1778162737 | 18.89° C | 99% | 1020.6 hPa | 0 mm | - | 54 W/m² | - |
| 1778162435 | 18.89° C | 99% | 1020.9 hPa | 0 mm | - | 50 W/m² | - |
| 1778162131 | 18.89° C | 99% | 1021.3 hPa | 0 mm | - | 59 W/m² | - |
| 1778161829 | 18.89° C | 99% | 1021.3 hPa | 0 mm | - | 22 W/m² | - |
| 1778161525 | 18.89° C | 99% | 1021.2 hPa | 0 mm | - | 12 W/m² | - |
| 1778161221 | 18.89° C | 99% | 1020.8 hPa | 0 mm | - | 17 W/m² | - |
| 1778160917 | 18.89° C | 99% | 1021 hPa | 0 mm | - | 13 W/m² | - |
| 1778160616 | 19.44° C | 99% | 1020.8 hPa | 0 mm | - | 10 W/m² | - |
| 1778160312 | 19.44° C | 99% | 1020.5 hPa | 0 mm | - | 12 W/m² | - |
| 1778160008 | 19.44° C | 99% | 1020.4 hPa | 0 mm | - | 24 W/m² | - |
| 1778159705 | 19.44° C | 99% | 1020.2 hPa | 0 mm | - | 27 W/m² | - |
| 1778159402 | 19.44° C | 99% | 1020.2 hPa | 0 mm | - | 17 W/m² | - |
| 1778159099 | 19.44° C | 99% | 1020.3 hPa | 0 mm | - | 43 W/m² | - |
| 1778158798 | 18.89° C | 99% | 1020.6 hPa | 0 mm | - | 42 W/m² | - |
| 1778158496 | 18.89° C | 99% | 1020.6 hPa | 0 mm | - | 21 W/m² | - |
| 1778158193 | 18.89° C | 99% | 1020.6 hPa | 0 mm | - | 37 W/m² | - |
| 1778157889 | 18.89° C | 99% | 1020.7 hPa | 0 mm | - | 32 W/m² | - |
| 1778157587 | 18.89° C | 99% | 1020.6 hPa | 0 mm | - | 15 W/m² | - |
| 1778157285 | 18.89° C | 99% | 1020.5 hPa | 0 mm | - | 7 W/m² | - |
| 1778156981 | 18.89° C | 99% | 1020.4 hPa | 0 mm | - | 4 W/m² | - |
| 1778156676 | 18.89° C | 99% | 1020.6 hPa | 0 mm | - | 0 W/m² | - |
* Rain latest hour (hover to see other rain measurements)
** Current wind speed in m/s (hover to see current wind gust speed)